Location: Newark
(53.7764°N, 20.4798°E)
Time: 10:08:15
(UTC+00:00)

Envisat - Visible Passes

Search period start: 29 September 2020 00:00
Search period end: 09 October 2020 00:00
Orbit: 764 x 766 km, 98.1° (Epoch: 29 September)

Date Brightness Start Highest point End Pass type
(mag) Time Alt. Az. Time Alt. Az. Time Alt. Az.
29 Sep 6.3 17:22:17 10° WSW 17:25:07 15° W 17:27:57 10° NW visible
30 Sep 5.9 03:42:56 10° NE 03:46:56 23° E 03:50:54 10° SE visible
01 Oct 6.5 03:07:45 10° ENE 03:09:35 12° E 03:11:24 10° ESE visible
02 Oct 6.2 17:10:09 10° SW 17:13:35 18° W 17:17:01 10° NW visible
03 Oct 6.1 03:31:51 10° NE 03:35:26 19° E 03:38:59 10° SE visible
04 Oct 6.7 17:37:59 10° W 17:39:26 11° W 17:40:54 10° WNW visible
05 Oct 5.4 03:56:44 10° NNE 04:01:10 29° E 04:05:33 10° SSE visible
05 Oct 5.9 16:58:12 10° SW 17:02:04 22° W 17:05:58 10° NW visible
06 Oct 6.2 03:20:53 10° NE 03:23:54 16° E 03:26:54 10° ESE visible
07 Oct 6.4 17:25:20 10° WSW 17:27:53 14° W 17:30:27 10° NW visible
08 Oct 5.7 03:45:33 10° NE 03:49:41 24° E 03:53:47 10° SE visible
08 Oct 5.6 16:46:21 10° SSW 16:50:34 26° W 16:54:50 10° NW visible
